Time,TemperatureF,DewpointF,PressureIn,WindDirection,WindDirectionDegrees,WindSpeedMPH,WindSpeedGustMPH,Humidity,HourlyPrecipIn,Conditions,Clouds,dailyrainin,SoftwareType,DateUTC
2013-10-10 00:14:00,-999.0,-99.9,30.30,East,86,5.0,9.0,-999,-99.99,,,-99.99,,2013-10-10 04:14:00,
2013-10-10 00:24:00,-999.0,-99.9,30.29,ENE,75,7.0,11.0,-999,-99.99,,,-99.99,,2013-10-10 04:24:00,
2013-10-10 01:03:00,-999.0,-99.9,30.28,NE,50,6.0,10.0,-999,-99.99,,,-99.99,,2013-10-10 05:03:00,
2013-10-10 01:12:00,-999.0,-99.9,30.28,NE,52,9.0,14.0,-999,-99.99,,,-99.99,,2013-10-10 05:12:00,
2013-10-10 01:23:00,-999.0,-99.9,30.28,NE,47,4.0,10.0,-999,-99.99,,,-99.99,,2013-10-10 05:23:00,
2013-10-10 01:34:00,-999.0,-99.9,30.28,ENE,64,8.0,10.0,-999,-99.99,,,-99.99,,2013-10-10 05:34:00,
2013-10-10 01:43:00,-999.0,-99.9,30.27,NE,45,7.0,14.0,-999,-99.99,,,-99.99,,2013-10-10 05:43:00,
2013-10-10 01:53:00,59.0,-99.9,30.28,North,-999,-999.0,-999.0,-999,-99.99,,,-99.99,,2013-10-10 05:53:00,
2013-10-10 02:03:00,-999.0,-99.9,30.27,ENE,57,8.0,13.0,-999,-99.99,,,-99.99,,2013-10-10 06:03:00,
2013-10-10 03:02:00,-999.0,-99.9,30.27,NE,43,7.0,15.0,-999,-99.99,,,-99.99,,2013-10-10 07:02:00,
2013-10-10 03:22:00,-999.0,-99.9,30.26,NE,46,7.0,13.0,-999,-99.99,,,-99.99,,2013-10-10 07:22:00,
2013-10-10 03:32:00,-999.0,-99.9,30.26,NE,45,8.0,11.0,-999,-99.99,,,-99.99,,2013-10-10 07:32:00,
2013-10-10 04:02:00,-999.0,-99.9,30.25,NNE,27,9.0,12.0,-999,-99.99,,,-99.99,,2013-10-10 08:02:00,
2013-10-10 04:11:00,-999.0,-99.9,30.25,NNE,17,11.0,15.0,-999,-99.99,,,-99.99,,2013-10-10 08:11:00,
2013-10-10 04:22:00,-999.0,-99.9,30.26,NNE,21,12.0,14.0,-999,-99.99,,,-99.99,,2013-10-10 08:22:00,
2013-10-10 04:52:00,-999.0,-99.9,30.26,NNE,13,11.0,13.0,-999,-99.99,,,-99.99,,2013-10-10 08:52:00,
2013-10-10 05:22:00,56.0,-99.9,30.26,North,-999,-999.0,-999.0,-999,-99.99,,,-99.99,,2013-10-10 09:22:00,
2013-10-10 05:33:00,-999.0,-99.9,30.26,NE,48,6.0,11.0,-999,-99.99,,,-99.99,,2013-10-10 09:33:00,
2013-10-10 05:43:00,-999.0,-99.9,30.26,NNE,31,7.0,11.0,-999,-99.99,,,-99.99,,2013-10-10 09:43:00,
2013-10-10 05:54:00,-999.0,-99.9,30.25,NNE,28,7.0,12.0,-999,-99.99,,,-99.99,,2013-10-10 09:54:00,
2013-10-10 06:03:00,-999.0,-99.9,30.25,NNE,20,10.0,13.0,-999,-99.99,,,-99.99,,2013-10-10 10:03:00,
2013-10-10 06:13:00,-999.0,-99.9,30.25,NNE,26,9.0,13.0,-999,-99.99,,,-99.99,,2013-10-10 10:13:00,
2013-10-10 07:58:00,-999.0,-99.9,30.24,NNE,19,12.0,15.0,-999,-99.99,,,-99.99,,2013-10-10 11:58:00,
2013-10-10 08:12:00,-999.0,-99.9,30.24,NNE,24,10.0,15.0,-999,-99.99,,,-99.99,,2013-10-10 12:12:00,
2013-10-10 08:32:00,-999.0,-99.9,30.24,NE,37,8.0,15.0,-999,-99.99,,,-99.99,,2013-10-10 12:32:00,
2013-10-10 09:12:00,-999.0,-99.9,30.23,NNE,22,11.0,14.0,-999,-99.99,,,-99.99,,2013-10-10 13:12:00,
2013-10-10 10:02:00,-999.0,-99.9,30.23,NNE,19,11.0,14.0,-999,-99.99,,,-99.99,,2013-10-10 14:02:00,
2013-10-10 10:11:00,-999.0,-99.9,30.23,NNE,21,11.0,14.0,-999,-99.99,,,-99.99,,2013-10-10 14:11:00,
2013-10-10 10:52:00,-999.0,-99.9,30.21,NNE,21,13.0,18.0,-999,-99.99,,,-99.99,,2013-10-10 14:52:00,
2013-10-10 11:33:00,-999.0,-99.9,30.21,NNE,24,11.0,17.0,-999,-99.99,,,-99.99,,2013-10-10 15:33:00,
2013-10-10 11:43:00,-999.0,-99.9,30.20,NNE,24,12.0,18.0,-999,-99.99,,,-99.99,,2013-10-10 15:43:00,
2013-10-10 12:33:00,-999.0,-99.9,30.20,NNE,26,11.0,15.0,-999,-99.99,,,-99.99,,2013-10-10 16:33:00,
2013-10-10 12:53:00,-999.0,-99.9,30.20,NNE,22,10.0,15.0,-999,-99.99,,,-99.99,,2013-10-10 16:53:00,
2013-10-10 13:12:00,-999.0,-99.9,30.19,NNE,24,11.0,16.0,-999,-99.99,,,-99.99,,2013-10-10 17:12:00,
2013-10-10 13:23:00,-999.0,-99.9,30.18,NE,40,8.0,16.0,-999,-99.99,,,-99.99,,2013-10-10 17:23:00,
2013-10-10 13:33:00,-999.0,-99.9,30.18,NNE,32,9.0,15.0,-999,-99.99,,,-99.99,,2013-10-10 17:33:00,
2013-10-10 13:42:00,-999.0,-99.9,30.18,NE,35,9.0,15.0,-999,-99.99,,,-99.99,,2013-10-10 17:42:00,
2013-10-10 13:53:00,-999.0,-99.9,30.17,NNE,27,10.0,13.0,-999,-99.99,,,-99.99,,2013-10-10 17:53:00,
2013-10-10 14:02:00,-999.0,-99.9,30.17,NE,40,10.0,16.0,-999,-99.99,,,-99.99,,2013-10-10 18:02:00,
2013-10-10 14:22:00,-999.0,-99.9,30.16,NNE,32,9.0,16.0,-999,-99.99,,,-99.99,,2013-10-10 18:22:00,
2013-10-10 15:11:00,-999.0,-99.9,30.14,NE,36,10.0,18.0,-999,-99.99,,,-99.99,,2013-10-10 19:11:00,
2013-10-10 15:32:00,-999.0,-99.9,30.14,NE,34,10.0,18.0,-999,-99.99,,,-99.99,,2013-10-10 19:32:00,
2013-10-10 15:42:00,-999.0,-99.9,30.14,NE,38,7.0,14.0,-999,-99.99,,,-99.99,,2013-10-10 19:42:00,
2013-10-10 15:53:00,-999.0,-99.9,30.14,NE,47,10.0,17.0,-999,-99.99,,,-99.99,,2013-10-10 19:53:00,
2013-10-10 16:02:00,-999.0,-99.9,30.13,NE,35,11.0,19.0,-999,-99.99,,,-99.99,,2013-10-10 20:02:00,
2013-10-10 16:12:00,-999.0,-99.9,30.13,NE,41,9.0,15.0,-999,-99.99,,,-99.99,,2013-10-10 20:12:00,
2013-10-10 16:52:00,-999.0,-99.9,30.11,NE,44,9.0,16.0,-999,-99.99,,,-99.99,,2013-10-10 20:52:00,
2013-10-10 17:22:00,-999.0,-99.9,30.11,NNE,19,10.0,15.0,-999,-99.99,,,-99.99,,2013-10-10 21:22:00,
2013-10-10 17:44:00,-999.0,-99.9,30.11,NNE,17,12.0,15.0,-999,-99.99,,,-99.99,,2013-10-10 21:44:00,
2013-10-10 19:03:00,-999.0,-99.9,30.11,NNE,13,12.0,14.0,-999,-99.99,,,-99.99,,2013-10-10 23:03:00,
2013-10-10 19:12:00,-999.0,-99.9,30.11,NE,36,8.0,15.0,-999,-99.99,,,-99.99,,2013-10-10 23:12:00,
2013-10-10 19:43:00,-999.0,-99.9,30.11,ENE,61,10.0,18.0,-999,-99.99,,,-99.99,,2013-10-10 23:43:00,
2013-10-10 20:32:00,-999.0,-99.9,30.10,NE,56,12.0,19.0,-999,-99.99,,,-99.99,,2013-10-11 00:32:00,
2013-10-10 21:02:00,-999.0,-99.9,30.10,NE,52,7.0,14.0,-999,-99.99,,,-99.99,,2013-10-11 01:02:00,
2013-10-10 21:12:00,-999.0,-99.9,30.11,NE,43,6.0,13.0,-999,-99.99,,,-99.99,,2013-10-11 01:12:00,
2013-10-10 21:32:00,-999.0,-99.9,30.10,NNE,32,7.0,11.0,-999,-99.99,,,-99.99,,2013-10-11 01:32:00,
2013-10-10 21:52:00,-999.0,-99.9,30.10,NE,46,8.0,13.0,-999,-99.99,,,-99.99,,2013-10-11 01:52:00,
2013-10-10 22:12:00,-999.0,-99.9,30.09,NE,46,10.0,16.0,-999,-99.99,,,-99.99,,2013-10-11 02:12:00,
2013-10-10 22:22:00,-999.0,-99.9,30.10,NE,38,7.0,10.0,-999,-99.99,,,-99.99,,2013-10-11 02:22:00,
2013-10-10 22:42:00,-999.0,-99.9,30.10,NNE,26,9.0,16.0,-999,-99.99,,,-99.99,,2013-10-11 02:42:00,
2013-10-10 23:02:00,-999.0,-99.9,30.10,NNE,33,6.0,15.0,-999,-99.99,,,-99.99,,2013-10-11 03:02:00,
2013-10-10 23:11:00,-999.0,-99.9,30.10,NE,37,8.0,14.0,-999,-99.99,,,-99.99,,2013-10-11 03:11:00,
2013-10-10 23:23:00,-999.0,-99.9,30.09,NE,36,7.0,14.0,-999,-99.99,,,-99.99,,2013-10-11 03:23:00,
2013-10-10 23:34:00,-999.0,-99.9,30.09,NE,37,9.0,14.0,-999,-99.99,,,-99.99,,2013-10-11 03:34:00,
2013-10-10 23:45:00,-999.0,-99.9,30.09,NNE,28,7.0,11.0,-999,-99.99,,,-99.99,,2013-10-11 03:45:00,